Other Public Products
Issued by NWS Charleston, SC

Current Version | Previous Version | Text Only | Print | Product List | Glossary Off
Versions: 1 2 3 4 5 6 7 8 9 10 11 12 13 14 15 16 17 18 19 20 21 22 23 24 25 26 27 28 29 30 31 32 33 34 35 36 37 38 39 40 41 42 43 44 45 46 47 48 49 50

364
FPUS82 KCHS 241912
OPUCHS

TEST...KCHS/KSAV Gateway Observations...TEST
National Weather Service Charleston SC
300 PM EDT TUE APR 24 2018

NOTE: "fair" indicates few or no clouds below 12,000 feet with no
significant weather and/or obstructions to visibility.

SCZ050-WAZ558-NCZ071-TXZ119-213-PAZ071-DCZ001-FLZ074-172-MI076-
NYZ176-178-MAZ016-IL014-TNZ027-NJZ106-GAZ044-MD014-242000-

...Gateway Observations for Charleston International...

CITY           SKY/WX    TMP DP  RH WIND       PRES   REMARKS
Chas Airport   FAIR      76  62  62 S13       29.81F
Seattle        PTSUNNY   72  41  32 SW7       30.16F
Charlotte      PTSUNNY   71  63  75 E12       29.80F
Dallas DFW     MOSUNNY   80  47  31 NE7       30.06F
Dallas Love    MOSUNNY   82  50  32 CALM      30.06F
Philladelphia  CLOUDY    63  45  51 SE13      30.25F
Wash National  LGT RAIN  61  48  62 SE14      30.16F
Baltimore      CLOUDY    63  47  55 E17       30.16F
Miami          MOSUNNY   88  70  55 S9        29.92F HX  92
Detroit        LGT RAIN  55  50  83 SE10      30.04F
Newark         PTSUNNY   61  42  49 SE13G24   30.30F
Laguardia      PTSUNNY   65  40  39 SE17G24   30.30F
J F K          PTSUNNY   60  45  57 SE21G28   30.32F
Boston Logan   FAIR      68  33  27 S13G23    30.28F
Ft. Lauderdale PTSUNNY   87  74  64 S9        29.90F HX  95
Chicago O`Hare FAIR      62  47  57 NE8       30.01F
Chicago Midway PTSUNNY   63  49  60 N10       30.01F
Houston Bush   FAIR      83  58  42 VRB6      30.05F
Houston Hobby  PTSUNNY   82  56  40 VRB5      30.04F
Nashville      CLOUDY    64  55  72 VRB7      29.91F
Atlanta        PTSUNNY   67  59  75 W15G22    29.88S

$$

GAZ044-118-TXZ119-213-NCZ071-DCZ001-MDZ014-506-PAZ021-071-NJZ106-
NYZ176-178-MAZ106-OHZ011-021-055-MIZ076-KYZ091-ILZ014-INZ047-
MNZ060-ONZ431-242000-

...Gateway Observations for Savannah International...

CITY           SKY/WX    TMP DP  RH WIND       PRES   REMARKS
Savannah Arpt  PTSUNNY   78  53  41 SW15      29.83F
Atlanta        PTSUNNY   67  59  75 W15G22    29.88S
Charlotte      PTSUNNY   71  63  75 E12       29.80F
Dallas DFW     MOSUNNY   80  47  31 NE7       30.06F
Houston Bush   FAIR      83  58  42 VRB6      30.05F
Wash National  LGT RAIN  61  48  62 SE14      30.16F
Wash Dulles    LGT RAIN  58  51  78 E17       30.14F
Baltimore      CLOUDY    63  47  55 E17       30.16F
Philadelphia   CLOUDY    63  45  51 SE13      30.25F
Newark         PTSUNNY   61  42  49 SE13G24   30.30F
Laguardia      PTSUNNY   65  40  39 SE17G24   30.30F
J F K          PTSUNNY   60  45  57 SE21G28   30.32F
Boston         FAIR      68  33  27 S13G23    30.28F
Pittsburg      LGT RAIN  54  52  93 E13       30.04F
Akron          LGT RAIN  52  48  86 E12       30.04F FOG
Cleveland      LGT RAIN  55  50  83 E10       30.06F
Cincinnati     DRIZZLE   55  54  96 NE9       29.90F FOG
Columbus       LGT RAIN  52  52 100 E10       29.94F
Detroit        LGT RAIN  55  50  83 SE10      30.04F
Chicago O`Hare FAIR      62  47  57 NE8       30.01F
Minneapolis    PTSUNNY   63  33  32 N15       30.16S
Indianapolis   DRIZZLE   56  53  90 NE9       29.94S
Toronto Canada CLOUDY    61  41  48 S7        30.12F

$$




USA.gov is the U.S. government's official web portal to all federal, state and local government web resources and services.